�N����,����,�~����,�C��,���x,�C��,����,���ϕ���,�ő�u�ԕ���,�ő厞����,���˗�,�I�_���x,�n�����x,�ő啗���N��,DTYPE
"16/09/05","00:10",0.0,26.7,79.6,1006.4,346.0,0.3,1.4,13.3,0.00,22.9,26.2,"00:03:36",1
"16/09/05","00:20",0.0,26.5,81.4,1006.2,276.5,0.3,0.6,304.1,0.00,23.1,26.1,"00:10:02",1
"16/09/05","00:30",0.0,25.9,83.7,1006.2,318.3,0.3,0.9,313.5,0.00,23.0,25.9,"00:22:16",1
"16/09/05","00:40",0.0,25.6,85.6,1006.4,260.0,0.3,1.2,238.0,0.00,23.0,26.1,"00:38:50",1
"16/09/05","00:50",0.0,25.4,86.8,1006.7,303.0,0.5,0.8,240.6,0.00,23.1,26.1,"00:41:12",1
"16/09/05","01:00",0.0,25.3,87.2,1006.0,83.3,0.8,3.3,93.2,0.00,23.1,26.0,"00:58:32",1
"16/09/05","01:10",0.0,25.4,87.2,1006.4,15.4,0.8,1.6,58.4,0.00,23.2,25.9,"01:06:40",1
"16/09/05","01:20",0.0,25.2,87.9,1006.4,346.4,1.0,1.9,354.6,0.00,23.1,25.8,"01:13:52",1
"16/09/05","01:30",0.0,24.9,88.8,1006.2,306.4,0.5,1.1,336.5,0.00,23.0,25.9,"01:23:28",1
"16/09/05","01:40",0.0,24.8,89.5,1006.0,304.7,0.5,0.9,307.0,0.00,23.0,26.0,"01:39:12",1
"16/09/05","01:50",0.0,24.8,90.0,1006.7,293.8,0.6,0.9,344.9,0.00,23.1,25.9,"01:43:52",1
"16/09/05","02:00",0.0,24.7,90.2,1006.4,309.1,0.6,1.2,339.8,0.00,23.0,26.0,"01:55:04",1
"16/09/05","02:10",0.0,24.8,90.3,1006.4,335.0,0.6,0.9,335.4,0.00,23.1,25.7,"02:02:00",1
"16/09/05","02:20",0.0,24.9,90.3,1006.9,333.4,0.5,0.9,348.0,0.00,23.2,25.8,"02:11:20",1
"16/09/05","02:30",0.0,24.9,90.6,1006.9,320.7,0.7,1.0,346.1,0.00,23.3,25.8,"02:29:52",1
"16/09/05","02:40",0.0,24.8,90.6,1006.4,347.4,0.7,1.7,9.1,0.00,23.2,25.8,"02:38:48",1
"16/09/05","02:50",0.0,24.7,90.2,1006.9,338.1,0.8,1.4,337.2,0.00,23.0,25.8,"02:41:52",1
"16/09/05","03:00",0.0,24.7,88.8,1006.7,48.0,0.5,1.1,119.8,0.00,22.8,25.8,"02:56:40",1
"16/09/05","03:10",0.0,25.0,85.6,1007.1,138.0,0.7,2.7,148.6,0.00,22.5,25.7,"03:02:56",1
"16/09/05","03:20",0.0,25.3,84.6,1006.9,349.1,0.6,1.7,95.8,0.00,22.6,25.7,"03:11:52",1
"16/09/05","03:30",0.0,25.1,85.1,1007.1,324.0,0.6,1.1,323.5,0.00,22.5,25.7,"03:26:56",1
"16/09/05","03:40",0.0,24.9,86.5,1007.1,321.8,1.0,1.7,334.2,0.00,22.5,25.6,"03:33:12",1
"16/09/05","03:50",0.0,24.6,87.3,1006.9,316.8,0.7,1.0,336.3,0.00,22.4,25.7,"03:46:40",1
"16/09/05","04:00",0.0,24.5,87.6,1006.9,297.5,0.5,0.8,333.8,0.00,22.3,25.5,"03:50:08",1
"16/09/05","04:10",0.0,24.5,88.1,1006.7,310.5,0.7,1.0,329.5,0.00,22.4,25.6,"04:04:00",1
"16/09/05","04:20",0.0,24.5,88.9,1006.7,311.3,0.6,0.8,318.3,0.00,22.6,25.5,"04:10:24",1
"16/09/05","04:30",0.0,24.4,89.5,1006.7,307.9,0.5,1.0,333.5,0.00,22.6,25.5,"04:23:28",1
"16/09/05","04:40",0.0,24.2,89.4,1006.7,346.7,0.7,1.7,340.9,0.00,22.4,25.6,"04:39:04",1
"16/09/05","04:50",0.0,24.0,89.7,1006.7,295.0,0.7,1.4,346.2,0.00,22.2,25.4,"04:41:28",1
"16/09/05","05:00",0.0,23.9,90.0,1006.9,324.2,0.7,1.3,341.2,0.00,22.2,25.5,"04:56:08",1
"16/09/05","05:10",0.0,23.8,90.1,1006.7,311.9,0.7,1.2,348.5,0.00,22.1,25.6,"05:06:48",1
"16/09/05","05:20",0.0,23.8,90.2,1006.9,323.7,0.7,1.2,3.0,0.00,22.1,25.3,"05:16:56",1
"16/09/05","05:30",0.0,23.8,90.5,1006.9,299.6,0.6,1.0,322.9,0.00,22.2,25.4,"05:20:24",1
"16/09/05","05:40",0.0,23.9,90.7,1007.1,273.5,0.6,1.0,242.1,0.00,22.3,25.3,"05:31:12",1
"16/09/05","05:50",0.0,23.9,90.7,1007.1,327.8,0.7,1.3,339.3,0.00,22.3,25.4,"05:44:16",1
"16/09/05","06:00",0.0,23.9,90.9,1007.1,319.7,0.6,1.3,324.9,0.00,22.4,25.2,"05:56:16",1
"16/09/05","06:10",0.0,24.1,91.1,1007.4,318.2,0.7,1.2,311.1,0.00,22.6,25.5,"06:01:20",1
"16/09/05","06:20",0.0,24.1,90.7,1007.4,305.0,0.7,0.9,347.3,0.00,22.5,25.2,"06:10:16",1
"16/09/05","06:30",0.0,24.3,90.6,1007.4,320.4,0.5,1.0,314.8,0.00,22.7,25.4,"06:20:08",1
"16/09/05","06:40",0.0,24.4,90.0,1007.1,308.8,0.2,0.8,117.9,0.00,22.7,25.3,"06:38:08",1
"16/09/05","06:50",0.0,24.6,89.3,1007.1,289.6,0.2,0.9,330.2,0.01,22.8,25.5,"06:47:20",1
"16/09/05","07:00",0.0,24.8,88.7,1007.4,305.9,0.6,1.0,326.9,0.01,22.8,25.4,"06:51:52",1
"16/09/05","07:10",0.0,24.9,88.5,1007.4,297.2,0.5,0.6,290.7,0.01,22.9,25.4,"07:05:20",1
"16/09/05","07:20",0.0,25.1,87.9,1007.1,304.2,0.5,0.8,326.1,0.02,23.0,25.4,"07:14:32",1
"16/09/05","07:30",0.0,25.6,87.1,1006.9,294.1,0.3,0.6,300.5,0.06,23.3,25.6,"07:20:24",1
"16/09/05","07:40",0.0,25.9,85.9,1007.1,291.1,0.2,0.6,304.5,0.05,23.4,25.4,"07:34:24",1
"16/09/05","07:50",0.0,27.5,81.7,1007.1,231.7,0.1,0.9,216.1,0.14,24.1,25.6,"07:45:04",1
"16/09/05","08:00",0.0,28.2,76.9,1006.9,125.1,0.6,2.4,357.1,0.16,23.8,25.9,"07:56:16",1
"16/09/05","08:10",0.0,28.0,75.7,1006.7,103.3,0.7,1.9,110.9,0.16,23.3,25.9,"08:08:56",1
"16/09/05","08:20",0.0,28.3,77.0,1006.0,151.5,1.0,3.2,220.7,0.20,23.9,26.1,"08:17:20",1
"16/09/05","08:30",0.0,28.5,73.6,1006.2,115.7,0.8,3.7,153.0,0.21,23.4,26.1,"08:25:44",1
"16/09/05","08:40",0.0,28.2,74.9,1006.4,156.5,1.1,2.8,199.6,0.17,23.4,26.1,"08:33:28",1
"16/09/05","08:50",0.0,28.2,74.3,1006.7,167.6,1.1,2.9,188.9,0.18,23.2,26.4,"08:48:00",1
"16/09/05","09:00",0.0,28.1,75.9,1006.0,158.6,1.1,3.6,207.0,0.13,23.5,26.4,"08:50:16",1
"16/09/05","09:10",0.0,29.2,72.8,1006.2,127.2,0.6,1.8,76.3,0.25,23.9,26.4,"09:00:16",1
"16/09/05","09:20",0.0,28.8,73.6,1006.4,124.7,0.6,2.2,95.6,0.17,23.7,26.5,"09:16:56",1
"16/09/05","09:30",0.0,29.4,70.9,1006.2,16.4,0.5,1.2,130.4,0.23,23.6,26.6,"09:27:36",1
"16/09/05","09:40",0.0,29.4,71.1,1006.7,207.4,0.6,2.1,224.8,0.21,23.7,26.7,"09:37:44",1
"16/09/05","09:50",0.0,29.6,71.5,1006.9,171.6,0.5,2.0,217.8,0.26,23.9,26.8,"09:44:40",1
"16/09/05","10:00",0.0,29.5,72.6,1006.9,202.6,0.7,2.8,217.9,0.21,24.1,26.8,"09:59:28",1
"16/09/05","10:10",0.0,29.5,69.8,1007.1,116.0,1.0,3.6,49.6,0.19,23.4,26.9,"10:00:48",1
"16/09/05","10:20",0.0,29.1,70.2,1006.9,231.0,1.1,4.0,226.3,0.14,23.2,27.2,"10:17:36",1
"16/09/05","10:30",0.0,29.4,69.9,1006.4,213.1,1.5,3.1,224.5,0.21,23.4,27.2,"10:22:00",1
"16/09/05","10:40",0.0,30.0,69.9,1006.9,213.8,1.7,3.1,221.3,0.33,23.9,27.2,"10:37:44",1
"16/09/05","10:50",0.0,30.5,67.8,1006.9,203.3,2.1,4.2,230.8,0.40,23.9,27.3,"10:46:32",1
"16/09/05","11:00",0.0,30.2,67.3,1007.1,193.9,2.1,4.4,200.7,0.35,23.5,27.5,"10:53:04",1
"16/09/05","11:10",0.0,30.2,68.5,1007.6,189.5,2.0,3.9,226.8,0.31,23.8,27.7,"11:06:00",1
"16/09/05","11:20",0.0,30.3,67.1,1007.1,197.8,2.1,3.7,202.5,0.32,23.6,27.8,"11:15:20",1
"16/09/05","11:30",0.0,30.4,66.4,1006.7,174.4,1.3,3.1,207.7,0.23,23.5,28.0,"11:24:24",1
"16/09/05","11:40",0.0,30.4,65.1,1006.4,173.4,1.5,3.5,116.9,0.23,23.1,27.8,"11:34:48",1
"16/09/05","11:50",0.0,30.3,61.5,1006.2,179.9,1.1,3.2,224.2,0.20,22.1,28.0,"11:49:44",1
"16/09/05","12:00",0.0,30.2,64.5,1005.7,202.5,1.0,2.7,216.2,0.19,22.8,27.9,"11:53:20",1
"16/09/05","12:10",0.0,30.4,62.5,1005.5,94.1,0.6,1.4,121.9,0.15,22.5,28.0,"12:07:16",1
"16/09/05","12:20",0.0,29.9,64.7,1005.5,152.1,0.8,3.2,201.1,0.16,22.6,28.2,"12:16:40",1
"16/09/05","12:30",0.0,30.2,67.6,1005.0,214.7,1.0,2.2,225.7,0.24,23.6,28.1,"12:25:44",1
"16/09/05","12:40",0.0,31.3,65.2,1005.2,214.4,2.0,3.4,212.8,0.47,24.0,28.3,"12:31:12",1
"16/09/05","12:50",0.0,31.0,62.9,1006.0,209.3,1.8,4.3,228.7,0.40,23.1,28.3,"12:48:00",1
"16/09/05","13:00",0.0,31.0,61.1,1005.2,197.3,2.1,3.6,221.5,0.34,22.7,28.7,"12:50:02",1
"16/09/05","13:10",0.0,31.5,61.0,1005.7,201.9,2.2,4.3,226.8,0.44,23.1,28.9,"13:09:12",1
"16/09/05","13:20",0.0,31.0,63.3,1006.0,207.3,2.0,4.3,197.8,0.29,23.2,28.5,"13:10:02",1
"16/09/05","13:30",0.0,30.7,63.6,1005.7,189.8,2.2,3.7,200.4,0.23,23.0,28.8,"13:28:24",1
"16/09/05","13:40",0.0,30.9,63.0,1005.7,200.8,2.3,4.9,214.8,0.21,23.1,28.8,"13:32:40",1
"16/09/05","13:50",0.0,31.0,61.7,1005.5,186.3,1.7,4.1,217.8,0.20,22.8,28.8,"13:40:02",1
"16/09/05","14:00",0.0,31.1,63.3,1005.2,191.9,1.3,4.1,207.3,0.21,23.3,28.9,"13:50:24",1
"16/09/05","14:10",0.2,30.7,63.9,1005.0,200.0,1.7,3.9,219.1,0.19,23.1,28.9,"14:06:32",1
"16/09/05","14:20",0.0,30.5,64.2,1005.0,214.9,1.3,4.0,224.2,0.15,23.0,29.0,"14:10:48",1
"16/09/05","14:30",0.0,30.5,64.4,1005.2,219.6,0.8,2.0,225.5,0.13,23.1,28.8,"14:28:32",1
"16/09/05","14:40",0.0,30.4,63.9,1004.8,235.4,0.3,2.0,228.4,0.05,22.8,28.9,"14:31:44",1
"16/09/05","14:50",0.2,29.9,68.2,1004.8,235.5,0.1,0.6,274.3,0.06,23.4,28.9,"14:48:24",1
"16/09/05","15:00",0.0,29.0,77.5,1003.6,353.7,0.5,1.6,9.4,0.09,24.7,28.6,"14:58:32",1
"16/09/05","15:10",0.0,28.4,80.2,1003.6,5.6,1.0,1.8,30.0,0.06,24.7,28.5,"15:02:00",1
"16/09/05","15:20",0.0,28.1,82.2,1004.1,348.6,0.7,1.7,350.2,0.05,24.8,28.2,"15:15:52",1
"16/09/05","15:30",0.0,27.9,82.9,1004.1,335.9,0.8,1.7,352.0,0.05,24.8,28.3,"15:23:20",1
"16/09/05","15:40",0.0,27.8,83.4,1004.1,283.1,0.5,1.4,355.2,0.04,24.8,28.2,"15:30:32",1
"16/09/05","15:50",0.0,27.5,83.0,1004.5,306.1,0.6,1.7,325.9,0.02,24.4,28.2,"15:47:20",1
"16/09/05","16:00",0.0,27.3,84.0,1004.1,318.5,0.7,1.3,330.7,0.02,24.4,28.2,"15:54:24",1
"16/09/05","16:10",0.0,27.0,84.9,1004.3,322.8,1.0,2.1,348.2,0.02,24.3,28.1,"16:06:56",1
"16/09/05","16:20",0.0,26.8,85.4,1004.5,285.2,0.6,1.4,343.5,0.02,24.2,28.0,"16:19:36",1
"16/09/05","16:30",0.0,26.6,86.0,1004.8,316.2,0.7,1.7,339.3,0.01,24.1,28.0,"16:26:24",1
"16/09/05","16:40",0.0,26.4,86.3,1004.8,282.6,0.3,0.6,304.5,0.01,24.0,27.9,"16:30:16",1
"16/09/05","16:50",0.0,26.3,86.6,1004.8,302.7,0.7,2.0,356.2,0.00,23.9,27.8,"16:48:24",1
"16/09/05","17:00",0.0,26.1,86.4,1005.0,317.4,0.8,2.1,340.9,0.00,23.7,27.7,"16:50:32",1
"16/09/05","17:10",0.0,26.2,86.7,1004.8,313.7,0.6,1.4,336.6,0.00,23.8,27.7,"17:09:52",1
"16/09/05","17:20",0.0,26.1,86.8,1005.0,322.6,0.7,2.0,340.5,0.00,23.8,27.5,"17:19:12",1
"16/09/05","17:30",0.0,26.1,86.6,1005.0,328.8,1.0,2.1,337.4,0.00,23.7,27.3,"17:23:04",1
"16/09/05","17:40",0.4,26.1,87.0,1005.0,335.4,0.8,2.5,347.7,0.00,23.8,27.5,"17:34:32",1
"16/09/05","17:50",0.2,26.0,87.7,1005.0,330.8,0.2,1.7,341.8,0.00,23.8,27.5,"17:40:32",1
"16/09/05","18:00",0.0,25.8,88.3,1005.2,328.7,0.1,1.1,322.1,0.00,23.8,27.3,"17:59:04",1
"16/09/05","18:10",0.0,25.5,89.0,1005.0,335.4,0.3,1.2,356.9,0.00,23.6,27.3,"18:07:20",1
"16/09/05","18:20",0.0,25.4,89.5,1005.0,329.9,0.3,1.1,337.4,0.00,23.6,27.0,"18:12:56",1
"16/09/05","18:30",0.0,25.3,90.0,1005.0,341.8,0.3,1.2,355.1,0.00,23.6,27.2,"18:28:40",1
"16/09/05","18:40",0.0,25.2,90.5,1005.0,336.1,0.2,0.8,350.4,0.00,23.6,27.2,"18:32:08",1
"16/09/05","18:50",0.0,25.0,90.9,1004.5,298.0,0.2,0.5,329.0,0.00,23.4,26.9,"18:45:04",1
"16/09/05","19:00",0.0,24.9,91.3,1005.0,278.8,0.1,0.4,291.4,0.00,23.4,26.8,"18:50:40",1
"16/09/05","19:10",0.0,24.9,91.8,1004.8,304.8,0.1,0.5,350.6,0.00,23.5,27.1,"19:04:48",1
"16/09/05","19:20",0.0,24.9,92.1,1005.5,341.6,0.3,1.4,1.3,0.00,23.6,26.9,"19:16:24",1
"16/09/05","19:30",0.0,24.9,92.3,1005.2,339.8,0.5,0.6,349.9,0.00,23.6,26.6,"19:20:08",1
"16/09/05","19:40",0.0,24.8,92.4,1005.5,271.8,0.2,0.9,225.2,0.00,23.5,26.6,"19:36:32",1
"16/09/05","19:50",0.0,24.8,92.5,1005.2,263.0,0.2,0.8,229.2,0.00,23.5,26.7,"19:42:16",1
"16/09/05","20:00",0.0,24.8,92.5,1005.5,291.0,0.2,0.9,232.9,0.00,23.5,26.7,"19:50:56",1
"16/09/05","20:10",0.0,24.9,92.6,1005.2,282.7,0.2,0.9,222.7,0.00,23.7,26.6,"20:06:00",1
"16/09/05","20:20",0.2,24.9,92.7,1005.5,339.7,0.6,1.3,17.2,0.00,23.7,26.7,"20:16:08",1
"16/09/05","20:30",0.0,24.8,92.8,1005.5,341.2,0.8,1.7,347.8,0.00,23.6,26.5,"20:26:48",1
"16/09/05","20:40",0.0,24.8,93.1,1006.0,273.6,0.1,0.8,332.9,0.00,23.6,26.5,"20:30:08",1
"16/09/05","20:50",0.0,24.7,93.0,1005.7,320.9,0.3,1.0,347.0,0.00,23.5,26.3,"20:43:12",1
"16/09/05","21:00",0.0,24.7,93.2,1005.7,291.5,0.2,0.4,305.4,0.00,23.6,26.6,"20:57:28",1
"16/09/05","21:10",0.0,24.7,93.3,1006.0,297.2,0.2,0.6,233.2,0.00,23.6,26.4,"21:01:04",1
"16/09/05","21:20",0.0,24.7,93.5,1005.7,322.2,0.3,0.8,332.9,0.00,23.6,26.3,"21:16:48",1
"16/09/05","21:30",0.0,24.6,93.5,1005.7,334.3,0.6,1.1,347.1,0.00,23.5,26.5,"21:22:08",1
"16/09/05","21:40",0.0,24.6,93.5,1005.7,292.7,0.2,0.5,313.7,0.00,23.5,26.3,"21:34:56",1
"16/09/05","21:50",0.0,24.5,93.6,1005.5,299.5,0.2,0.9,245.0,0.00,23.4,26.3,"21:40:02",1
"16/09/05","22:00",0.0,24.5,93.7,1005.7,307.3,0.3,0.6,236.6,0.00,23.5,26.2,"21:50:24",1
"16/09/05","22:10",0.0,24.6,93.8,1005.7,302.4,0.2,0.5,325.6,0.00,23.6,26.3,"22:00:16",1
"16/09/05","22:20",0.0,24.6,93.9,1005.7,329.7,0.5,1.1,339.0,0.00,23.6,26.2,"22:18:08",1
"16/09/05","22:30",0.0,24.6,93.9,1006.0,325.0,0.5,1.0,356.5,0.00,23.6,25.9,"22:21:52",1
"16/09/05","22:40",0.0,24.5,93.9,1006.0,290.0,0.1,0.4,298.5,0.00,23.5,26.1,"22:33:36",1
"16/09/05","22:50",0.0,24.6,93.9,1005.7,309.8,0.1,0.6,301.5,0.00,23.6,26.4,"22:46:32",1
"16/09/05","23:00",0.0,24.6,93.9,1005.5,315.8,0.1,0.4,252.6,0.00,23.6,26.1,"22:57:28",1
"16/09/05","23:10",0.0,24.5,94.0,1006.0,297.0,0.3,0.5,300.6,0.00,23.5,26.2,"23:01:36",1
"16/09/05","23:20",0.0,24.5,94.1,1005.7,300.4,0.1,0.8,239.7,0.00,23.5,25.9,"23:14:24",1
"16/09/05","23:30",0.0,24.5,94.1,1005.7,273.7,0.2,0.8,311.7,0.00,23.5,26.1,"23:23:44",1
"16/09/05","23:40",0.0,24.6,94.2,1005.5,318.4,0.2,0.6,9.3,0.00,23.6,26.0,"23:39:44",1
"16/09/05","23:50",0.0,24.6,94.2,1005.7,304.1,0.3,0.6,336.6,0.00,23.6,26.1,"23:41:28",1
"16/09/05","24:00",0.0,24.6,94.2,1005.7,318.4,0.1,0.4,325.5,0.00,23.6,26.0,"23:50:08",1
